Temp_Advection
nan nan nan nan nan nan nan nan nan nan nan nan nan nan nan nan nan nan nan nan nan nan nan nan nan nan nan nan nan nan nan nan nan nan nan nan nan nan nan nan nan nan nan nan nan nan nan nan nan nan nan nan nan nan nan nan nan nan nan nan nan nan nan nan nan nan nan nan nan
nan 0 1 1 1 0 0 1 1 1 0 0 0 0 0 1 1 1 0 0 -0 -1 -0 -0 -0 -0 -0 -0 0 1 1 1 1 1 1 1 1 1 1 1 1 0 -0 -0 -0 -0 -0 0 1 1 1 1 0 0 0 0 0 0 -0 -0 -0 -0 -0 -0 -0 0 0 0 nan
nan 1 1 1 0 0 0 0 0 0 1 1 0 0 0 1 1 1 0 -0 -0 -0 -0 -0 -0 -0 -0 0 0 1 1 1 1 1 1 1 1 1 1 1 -0 -0 -0 -0 0 0 0 1 1 1 1 0 0 0 0 0 0 -0 -0 -0 -0 -0 -0 -0 -0 0 0 0 nan
nan 1 0 -0 -0 -0 -0 0 0 0 1 1 1 0 0 1 1 1 0 0 -0 -0 -1 -1 -0 -0 -0 0 0 1 1 1 1 1 1 1 1 1 0 -0 -0 -0 -0 0 1 1 1 1 1 1 0 0 0 0 0 0 -0 -0 0 0 -0 -0 -0 -0 0 0 0 0 nan
nan 0 0 -0 -0 0 0 0 1 1 1 1 1 0 0 0 1 0 0 -0 -1 -1 -1 -0 -0 0 0 0 1 1 1 1 1 1 1 1 1 0 -0 -0 0 0 0 1 1 1 1 1 0 0 0 0 0 0 -0 -0 0 0 0 0 0 -0 -0 0 0 0 0 0 nan
nan 0 0 0 0 1 1 1 1 1 1 1 0 0 0 0 0 -0 -0 -1 -1 -1 -0 0 0 0 0 1 1 1 1 1 1 1 1 0 0 0 0 0 0 0 1 1 1 1 0 0 0 0 0 0 -0 -0 -0 0 0 0 0 -0 -0 0 0 0 0 0 0 0 nan
nan 0 0 0 1 1 1 1 1 1 1 1 0 0 0 0 0 -0 -1 -1 -1 -0 -0 0 0 1 0 0 0 1 1 1 1 0 -0 -0 -0 0 0 0 0 1 1 1 1 1 0 0 0 0 0 0 -0 -0 -0 0 0 0 -0 -0 0 0 0 0 0 0 0 0 nan
nan 0 1 1 1 1 1 1 1 1 1 0 0 0 0 0 -0 -0 -1 -1 -1 -1 -0 0 0 0 0 0 0 1 1 1 0 -0 -1 -0 -0 0 0 0 0 1 1 1 1 1 0 -0 0 0 0 -0 -0 -0 0 0 0 -0 -0 0 1 1 0 0 0 0 0 0 nan
nan 1 1 1 1 1 1 1 1 1 0 0 0 0 0 0 -0 -1 -1 -1 -1 -0 0 0 0 0 0 0 0 1 0 -0 -1 -1 -1 -0 -0 0 0 1 1 1 1 1 1 0 0 0 0 0 0 0 -0 -0 0 0 -0 -0 0 1 1 0 0 0 0 0 0 0 nan
nan 1 1 1 1 1 1 1 1 1 0 0 0 1 1 0 -0 -1 -1 -1 -1 0 0 0 0 0 0 0 0 0 -0 -1 -1 -1 -0 0 0 1 1 1 1 1 1 1 1 0 0 0 0 1 0 0 -0 -0 -0 -0 -0 0 1 1 0 0 0 0 0 0 0 0 nan
nan 1 1 1 1 1 1 1 1 1 0 0 1 1 1 0 -0 -1 -1 -1 -0 0 0 0 0 -0 -0 -0 -0 -0 -0 -1 -1 -0 -0 0 1 1 1 1 1 1 1 1 1 0 0 0 0 0 0 0 -0 -0 -0 -0 0 1 1 0 0 0 0 0 0 0 0 0 nan
nan 1 1 1 1 1 1 1 1 1 0 0 0 1 1 0 -0 -1 -1 -0 -0 0 0 0 0 -0 -0 -0 -0 -0 -0 -0 -0 -0 0 1 1 1 2 1 1 1 1 1 0 0 0 0 0 0 0 -0 -0 -0 -0 0 1 1 0 0 0 0 0 0 0 0 0 -0 nan
nan 1 1 1 1 1 1 1 1 1 0 0 1 1 1 0 -0 -1 -1 -0 0 1 1 1 0 -0 -0 0 0 0 -0 -0 -0 0 1 1 1 2 2 1 1 1 0 0 0 -0 0 0 0 0 0 -0 -0 -0 0 1 1 0 0 0 0 0 0 0 0 0 0 -0 nan
nan 1 1 1 1 1 1 1 1 0 0 0 1 1 1 0 -0 -1 -1 -0 1 1 1 1 0 -0 0 0 0 0 -0 -0 0 1 1 1 2 2 1 1 1 0 0 0 0 0 0 0 0 0 0 0 0 0 0 0 0 0 0 0 0 0 0 0 0 0 0 0 nan
nan 1 1 1 1 1 1 1 1 1 0 0 1 1 0 -0 -1 -1 -0 0 1 1 1 0 0 0 0 0 0 0 -0 0 0 1 1 1 2 1 1 1 0 0 0 0 0 0 0 0 0 0 0 0 0 0 0 0 0 0 0 0 0 0 0 0 0 0 0 0 nan
nan 0 1 1 1 1 1 1 1 1 0 0 1 1 0 -0 -0 -0 -0 0 1 1 1 0 0 0 0 0 0 -0 0 0 1 1 1 1 1 1 1 0 0 0 0 0 0 0 -0 0 0 0 0 0 0 0 0 0 0 0 0 0 0 0 0 0 0 0 -0 -0 nan
nan 1 1 1 1 1 1 1 1 1 1 1 1 1 0 -0 -0 -0 0 1 1 1 0 0 0 0 0 0 -0 -0 -0 0 1 1 1 1 1 1 1 0 0 0 0 0 0 -0 -0 0 0 0 0 0 0 0 0 0 0 0 0 0 0 0 0 0 0 0 -0 -0 nan
nan 1 1 1 1 1 1 1 1 1 1 1 1 1 0 0 0 0 0 1 1 1 0 -0 0 0 0 -0 -0 -0 -0 0 1 1 1 1 1 1 1 0 0 0 0 0 -0 -0 0 0 0 0 0 0 0 0 1 1 0 0 0 0 -0 -0 0 0 0 0 -0 -0 nan
nan 1 1 1 1 1 1 1 1 1 1 1 1 1 0 0 0 0 1 1 1 1 0 0 0 0 -0 -0 -0 -0 0 0 1 1 1 1 1 1 1 0 0 0 0 -0 -0 0 0 0 0 0 0 0 0 0 1 1 0 0 -0 -0 -0 0 0 0 0 0 -0 -0 nan
nan 1 1 1 1 1 1 1 1 1 1 1 1 1 1 0 0 1 1 1 1 0 0 0 0 0 -0 -0 -0 -0 0 1 1 1 1 1 1 1 0 0 0 -0 -0 -0 -0 -0 0 0 0 0 0 0 0 1 1 1 0 0 -0 -0 0 0 0 0 0 0 -0 -0 nan
nan 1 1 1 1 1 1 1 1 1 1 1 1 1 1 1 1 0 1 1 0 0 0 0 0 -0 -0 -0 -0 -0 0 1 1 1 1 1 1 1 0 0 -0 -0 -0 -0 -0 -0 0 0 0 0 0 0 1 1 1 0 0 -0 -0 0 0 0 0 0 0 -0 -0 -0 nan
nan 1 1 1 1 1 1 2 2 1 1 1 1 1 1 1 1 1 1 1 0 0 0 0 0 -0 -0 -0 -0 -0 1 1 1 1 1 1 1 0 0 -0 -0 -0 -0 -0 -0 -0 0 0 0 0 0 0 1 1 0 0 0 -0 -0 0 0 0 0 0 0 -0 -0 0 nan
nan 1 1 1 1 1 2 1 1 1 0 1 1 1 1 1 1 1 1 0 0 0 0 0 0 -0 -0 -0 -0 0 1 1 1 1 1 1 1 0 -0 -0 -0 -0 -0 -0 -0 0 0 0 0 0 0 1 1 0 0 0 0 -0 0 0 0 0 0 0 -0 -0 -0 0 nan
nan 1 1 1 1 1 1 1 0 0 0 0 1 1 0 0 0 1 0 0 0 -0 -0 -0 -0 -0 -0 -0 -0 0 1 1 1 1 1 1 0 0 -0 -0 0 0 0 0 0 0 0 0 0 0 1 1 0 0 0 0 0 0 0 0 0 0 0 -0 -0 -0 0 0 nan
nan 1 1 1 1 1 1 0 0 0 0 1 1 0 0 0 0 0 0 0 -0 -0 -0 -0 -0 -0 -1 -0 -0 0 1 1 1 1 1 0 0 0 0 0 0 0 0 0 0 0 0 0 1 1 0 0 0 0 0 0 0 0 0 0 0 0 -0 -0 -0 -0 0 0 nan
nan 1 1 1 1 1 0 0 1 1 1 1 0 0 0 0 1 0 0 -0 -0 -0 -0 -0 -0 -1 -1 -1 -0 0 1 1 1 1 1 0 0 0 0 0 0 0 0 0 0 1 1 1 0 0 0 0 0 0 0 0 0 0 0 0 0 0 -0 -0 -0 0 0 0 nan
nan 1 1 1 1 1 1 1 1 1 1 1 1 1 1 1 1 1 0 -0 -0 -0 -0 -0 -1 -1 -1 -0 -0 0 1 1 1 1 1 1 1 0 0 0 0 0 0 0 1 1 0 0 0 -0 0 0 0 0 0 0 0 0 0 0 0 -0 -0 -0 -0 0 0 0 nan
nan 1 1 1 1 1 1 1 1 1 1 1 1 1 1 1 1 1 0 -0 -0 -0 -0 -1 -1 -1 -0 -0 -0 0 1 1 1 1 1 1 1 1 0 0 1 1 1 1 1 1 0 -0 -0 -0 0 0 0 0 0 0 0 0 0 0 0 -0 -0 -0 0 0 0 0 nan
nan 1 1 1 1 1 1 1 1 1 1 1 1 1 1 1 1 1 0 -0 -0 -1 -1 -1 -1 -1 -1 -1 -0 0 1 1 1 1 1 1 1 1 0 0 1 1 1 1 1 0 0 -0 -0 0 0 1 0 0 0 0 0 0 0 0 -0 -0 -0 -0 0 0 0 1 nan
nan 1 1 1 1 1 1 1 1 1 1 1 1 1 1 1 1 1 0 -0 -1 -1 -1 -1 -1 -1 -1 -0 0 1 1 1 1 1 1 1 1 0 0 1 1 1 1 1 1 0 -0 -0 0 0 1 0 0 0 0 0 0 1 0 0 -0 -0 -0 0 0 0 0 0 nan
nan 1 1 1 1 1 1 1 1 1 1 1 1 0 0 1 1 0 0 -0 -1 -1 -1 -1 -0 -0 -0 -0 0 1 1 1 1 1 1 1 1 0 0 1 1 1 1 1 0 -0 -0 0 0 0 1 0 0 0 0 0 1 1 0 -0 -0 -0 -0 0 0 0 0 0 nan
nan 1 1 1 1 1 1 1 1 1 1 1 0 0 0 0 0 0 0 -0 -1 -1 -1 -1 -0 -0 -0 0 1 1 1 1 1 1 1 1 1 1 1 0 1 1 1 1 0 -0 -0 0 0 0 0 0 0 0 0 1 1 0 0 -0 -0 -0 -0 0 0 0 0 0 nan
nan 1 1 1 1 1 1 1 1 1 1 0 0 0 0 1 1 0 -0 -0 -1 -1 -1 -1 -1 -0 -0 0 1 1 1 1 1 1 1 1 1 1 0 1 1 1 1 0 0 -0 0 0 0 0 0 0 0 0 0 1 1 0 0 -0 -0 -0 0 0 0 0 0 0 nan
nan 1 1 1 1 1 1 1 1 1 0 0 0 0 1 1 1 0 -0 -1 -1 -1 -1 -0 -0 -0 0 1 1 1 1 1 1 1 1 1 1 1 1 1 1 0 0 0 -0 0 0 0 0 0 0 0 0 0 1 1 0 0 -0 -0 -0 -0 0 0 0 0 0 0 nan
nan 1 1 1 1 1 1 1 0 0 0 0 0 1 1 1 0 0 -0 -1 -1 -0 -0 -0 0 0 1 1 1 1 1 1 1 1 1 1 1 1 1 0 0 0 0 0 0 0 0 0 0 0 0 0 0 0 1 1 0 0 -0 -0 -0 -0 0 0 0 0 0 0 nan
nan 1 1 1 1 0 0 0 0 0 0 0 0 1 1 1 0 0 -0 -0 -0 -0 -0 -0 -0 0 0 1 1 1 1 1 1 1 1 1 1 1 0 0 0 0 0 0 0 0 0 0 0 0 0 0 0 0 0 1 0 0 -0 -0 -0 -0 0 0 1 1 1 0 nan
nan 0 1 0 0 0 0 0 0 0 0 0 1 1 1 1 1 0 -0 -0 -0 -0 -0 -0 -0 -0 -0 0 1 1 1 1 1 1 1 1 1 0 0 -0 0 0 0 0 0 0 0 -0 0 0 0 0 0 0 1 1 0 -0 -0 -0 -0 0 0 1 1 1 0 0 nan
nan 0 0 0 0 0 0 0 0 0 0 0 0 1 1 0 0 0 -0 -0 -0 -1 -1 -1 -0 -0 0 0 1 1 1 1 1 1 1 1 1 0 0 0 0 0 1 1 0 0 -0 -0 0 0 0 0 0 0 1 0 0 -0 -0 -0 -0 0 0 1 1 1 0 0 nan
nan 0 0 0 0 0 0 0 0 0 0 0 0 0 0 0 0 -0 -0 -0 -1 -1 -1 -1 -1 -0 0 1 1 1 1 1 1 1 1 1 0 0 0 0 0 0 0 0 0 -0 -0 0 0 0 0 0 0 0 1 0 0 -0 -0 -0 0 0 0 0 1 0 0 0 nan
nan 0 0 0 0 0 1 1 1 0 0 0 0 0 0 0 0 -0 -0 -0 -1 -1 -1 -1 -1 -0 0 1 1 1 1 1 1 1 1 1 0 0 0 0 0 0 0 0 -0 -0 0 0 0 0 0 0 0 1 1 0 -0 -0 -0 -0 0 0 0 1 1 1 1 0 nan
nan nan nan nan nan nan nan nan nan nan nan nan nan nan nan nan nan nan nan nan nan nan nan nan nan nan nan nan nan nan nan nan nan nan nan nan nan nan nan nan nan nan nan nan nan nan nan nan nan nan nan nan nan nan nan nan nan nan nan nan nan nan nan nan nan nan nan nan nan
Wind_Speed
30 30 29 29 29 29 29 29 29 29 29 29 29 28 28 27 27 27 28 29 29 29 29 29 28 27 27 27 27 27 27 27 26 26 25 25 24 23 22 22 21 22 24 25 26 25 24 23 22 21 21 20 20 20 21 21 21 22 22 21 21 20 20 19 19 18 17 15 15
30 30 30 30 29 29 29 29 29 29 30 30 30 29 28 27 27 27 27 28 28 28 28 27 27 27 26 26 26 27 27 27 27 26 25 24 23 23 22 22 23 25 26 26 26 25 23 22 21 20 20 20 20 20 21 22 22 22 22 22 21 20 20 19 19 18 16 15 15
31 31 30 30 30 29 29 29 30 30 30 31 30 29 28 27 26 26 27 27 28 28 27 27 26 26 26 25 26 26 26 26 26 26 25 24 24 23 24 25 26 27 27 26 25 24 23 21 20 20 19 19 20 20 21 22 23 22 22 21 21 20 20 19 19 17 15 14 15
32 31 31 31 30 30 30 30 30 30 31 31 30 29 28 27 26 26 26 27 27 27 27 26 26 25 25 25 25 25 25 25 25 25 25 25 25 26 26 27 28 28 27 26 25 23 22 21 20 20 20 20 20 21 22 23 22 22 21 21 20 20 19 19 17 15 14 14 15
32 32 32 32 31 31 30 30 30 30 31 31 30 30 29 27 26 26 27 28 28 28 27 26 25 24 24 24 24 24 24 24 24 25 26 27 28 28 29 29 28 27 26 25 24 23 22 21 20 20 20 20 20 21 21 22 21 21 20 20 20 19 18 17 15 14 14 15 15
33 33 32 32 31 31 30 30 30 30 30 30 30 30 29 29 28 28 29 29 29 28 27 25 24 24 24 24 24 24 23 23 24 25 27 28 29 29 29 29 28 27 26 24 23 22 21 21 21 20 20 19 19 19 20 20 20 19 19 19 19 18 17 15 14 14 15 15 16
33 33 32 32 32 31 31 30 30 30 30 30 30 30 30 30 30 30 30 30 29 28 26 25 24 24 24 25 24 23 22 22 24 26 27 29 29 29 29 28 27 26 25 24 22 21 21 21 21 20 20 19 18 18 18 18 18 18 18 18 17 16 15 13 13 14 15 16 16
32 32 32 32 32 31 31 31 30 30 30 30 30 31 31 31 31 31 31 30 29 28 26 25 24 25 25 25 24 23 23 23 24 26 27 28 28 28 28 27 27 25 24 23 22 21 21 21 21 21 19 18 17 17 17 17 17 17 17 17 16 14 13 13 14 15 16 16 15
32 32 32 32 32 32 31 31 31 31 30 30 30 30 31 32 32 32 32 31 29 27 26 25 25 26 26 26 25 24 24 24 25 26 26 26 26 27 27 26 26 24 23 22 21 21 21 22 21 21 20 18 17 16 16 16 16 16 16 15 14 13 13 14 14 15 16 15 14
32 32 32 32 32 31 31 31 31 31 30 30 29 29 30 31 32 32 32 30 28 27 26 26 27 27 27 27 26 26 26 26 25 25 24 24 24 25 25 25 24 23 22 21 20 21 21 21 21 21 20 19 18 17 17 16 16 15 15 14 13 13 13 14 15 15 15 14 13
32 32 32 32 32 31 31 31 31 31 30 30 29 29 30 31 32 32 31 29 28 27 27 27 28 28 29 29 28 28 27 26 25 24 23 22 22 23 23 23 22 22 21 20 20 20 21 21 21 21 20 19 18 18 17 16 15 15 14 14 13 13 14 15 15 15 14 13 12
32 32 31 31 31 31 31 32 32 31 31 30 29 29 30 31 31 30 29 28 28 28 28 28 29 30 30 30 30 29 27 26 24 23 21 21 21 21 22 22 21 20 20 19 20 20 20 20 20 20 19 18 18 17 17 16 15 14 14 14 14 14 15 15 15 15 13 12 11
31 31 31 31 31 32 32 32 32 32 31 30 30 30 30 30 30 29 28 28 28 28 28 29 30 31 31 31 31 29 27 25 23 22 21 20 21 21 21 21 21 20 19 19 19 19 19 19 19 19 18 17 17 17 16 16 15 14 14 14 14 15 15 15 15 14 12 11 10
31 31 31 31 31 32 33 33 33 32 31 30 30 30 30 30 29 28 28 28 28 28 29 30 31 32 32 32 31 29 26 24 23 22 21 21 21 21 21 21 20 20 19 19 19 19 19 19 18 17 16 16 17 16 16 15 15 14 14 14 15 15 15 15 14 13 12 11 10
31 31 31 31 32 33 34 34 34 33 32 31 30 30 30 29 28 28 27 28 28 29 30 31 32 33 32 32 30 27 25 23 22 22 21 21 21 21 21 21 20 20 19 19 19 19 19 17 16 16 15 16 16 16 16 15 15 15 15 15 15 15 15 14 13 12 11 10 10
32 31 31 32 32 33 34 35 34 33 32 31 31 30 30 29 28 27 28 28 29 30 31 32 33 33 33 31 29 26 24 23 22 22 22 21 21 21 21 21 20 20 20 20 20 19 18 17 15 15 15 15 16 16 16 15 15 15 15 15 15 15 14 13 12 11 10 10 10
32 32 32 32 33 34 35 35 35 34 33 32 31 30 30 29 28 28 28 29 30 31 32 33 34 34 33 31 28 26 24 23 22 22 21 21 20 20 21 20 20 20 20 21 20 19 18 16 15 15 15 15 15 16 16 16 16 16 15 15 15 14 13 13 12 11 10 10 10
32 32 33 33 34 35 36 36 35 34 33 32 31 31 30 29 29 29 29 30 31 32 33 34 34 34 32 30 28 26 24 23 23 22 21 20 19 20 20 20 20 20 21 21 20 19 17 16 15 15 15 15 15 16 16 16 16 16 15 15 14 14 13 12 11 10 10 10 10
32 32 33 34 35 35 36 36 36 35 33 32 31 31 30 29 29 30 31 32 32 33 34 34 34 34 32 30 27 26 24 24 23 22 20 19 19 19 20 20 20 21 21 21 20 19 17 16 15 15 15 15 16 16 16 16 16 15 15 14 14 13 13 12 11 10 10 10 10
31 32 33 34 35 35 36 36 35 34 33 32 31 31 30 30 30 31 32 33 33 34 34 34 34 33 31 29 27 25 24 24 22 21 20 19 19 19 20 20 21 21 21 20 19 18 17 16 15 15 15 15 15 15 15 15 15 15 15 14 14 13 12 11 10 10 10 10 10
31 32 33 34 34 35 35 35 34 34 33 32 31 30 30 30 31 32 33 34 34 34 34 34 33 32 30 28 26 25 24 24 23 21 20 19 19 20 20 21 21 21 21 20 19 18 17 16 16 15 15 15 14 14 14 15 15 15 15 14 14 13 11 10 10 10 10 10 10
30 31 32 33 34 34 35 34 33 32 31 30 30 30 31 31 32 33 34 34 34 34 34 33 32 31 29 27 26 25 24 24 23 22 21 20 20 21 21 22 22 22 21 20 19 18 17 16 16 15 15 14 14 14 14 15 15 15 15 14 13 12 11 10 10 10 10 10 10
29 30 31 32 33 34 33 32 31 30 29 29 29 30 31 33 33 34 34 34 34 34 33 32 31 29 28 27 26 25 25 24 23 22 22 22 22 22 22 22 22 22 21 20 19 18 17 16 15 14 14 13 13 14 15 15 15 15 14 14 13 11 10 10 10 11 11 10 10
29 29 31 32 32 32 32 31 30 30 29 29 29 31 33 34 34 34 34 34 34 34 33 32 30 29 27 26 26 25 25 24 24 24 23 24 24 23 23 22 22 21 21 20 19 17 16 15 14 13 13 13 13 14 14 15 15 14 14 13 12 11 11 11 11 11 11 11 10
28 29 30 31 31 31 31 31 31 30 30 30 31 32 34 35 35 35 35 34 34 33 32 31 30 29 28 27 26 25 25 25 25 25 25 25 25 24 23 22 22 21 20 19 18 17 15 14 14 13 13 13 13 14 14 14 14 14 13 12 12 11 11 11 11 11 11 10 10
28 29 29 30 31 31 31 31 31 30 30 31 32 34 35 36 36 36 35 35 34 33 32 31 30 29 28 27 26 26 26 26 26 26 26 25 25 24 23 22 22 21 20 19 18 16 16 15 14 14 14 14 13 14 14 14 14 13 13 12 12 11 11 11 12 11 11 10 9
28 29 29 30 31 31 31 31 31 31 31 32 34 35 36 36 36 36 36 35 35 34 33 31 30 29 28 27 27 26 26 27 26 26 26 25 25 24 23 23 22 21 20 19 18 17 16 16 15 15 14 14 13 13 13 13 13 13 13 12 12 11 11 12 12 11 11 10 9
29 30 30 30 30 31 31 31 30 31 32 34 35 36 36 36 36 36 36 35 35 34 33 32 31 30 28 28 27 27 27 27 27 26 26 25 25 24 23 22 21 20 20 19 18 18 17 17 16 15 14 13 13 13 13 13 13 13 13 12 12 12 12 12 12 11 10 10 9
30 30 31 30 30 30 30 30 31 32 33 35 35 36 36 36 36 36 36 35 35 35 34 33 32 31 29 29 28 28 27 27 27 26 26 25 25 24 23 22 21 20 20 19 19 18 18 17 16 15 14 13 13 13 13 14 14 13 13 12 12 12 12 12 12 11 10 9 9
30 30 31 31 30 30 30 30 31 32 34 35 36 36 36 36 36 35 35 35 35 35 34 34 33 31 30 30 29 28 28 27 27 26 26 26 26 25 23 22 21 20 20 20 19 19 19 18 17 15 14 14 13 13 14 14 14 14 13 12 12 12 12 12 12 11 10 9 9
29 30 31 31 30 30 30 30 32 33 35 36 36 36 36 36 35 35 35 34 34 34 34 33 32 32 31 30 29 28 28 27 27 27 26 27 26 25 24 22 21 21 20 20 20 20 19 18 17 16 15 14 14 14 14 14 14 14 13 13 12 12 12 12 11 11 10 10 9
28 29 30 30 30 30 30 31 32 34 36 36 37 37 36 36 35 34 34 33 33 33 33 33 32 32 31 30 29 28 27 27 27 27 27 27 26 25 24 23 22 21 21 21 21 20 20 19 17 16 15 14 14 14 15 15 15 14 13 13 12 12 12 12 11 11 10 10 9
27 28 28 29 29 30 30 32 33 35 36 36 37 37 36 35 35 34 33 33 33 33 33 33 32 32 31 30 29 28 27 27 27 27 27 27 26 25 24 23 22 22 22 22 21 21 20 19 17 16 15 14 14 15 15 15 15 14 14 13 13 12 12 12 11 11 10 10 9
26 27 27 28 29 30 31 32 34 35 36 36 36 36 36 35 34 34 33 33 33 32 32 32 32 31 30 29 28 28 27 27 27 27 27 27 26 25 24 23 23 23 23 23 22 21 20 19 17 16 15 15 15 15 16 16 15 15 14 13 13 12 12 12 11 11 10 10 9
26 27 27 28 30 31 32 33 34 35 35 36 36 36 35 35 34 34 34 33 33 32 32 32 32 31 30 29 28 27 27 27 27 27 27 26 25 25 24 23 23 23 24 23 23 22 20 19 17 16 16 15 16 16 16 16 16 15 14 14 13 13 12 12 12 11 10 10 9
26 27 28 29 30 31 32 33 33 34 35 35 35 35 35 35 34 34 34 34 33 33 33 33 32 31 30 29 28 28 27 27 26 26 26 25 25 24 24 23 24 24 24 24 23 22 20 19 17 16 16 16 16 16 17 17 16 15 14 14 13 13 12 12 12 11 10 10 9
26 27 29 30 31 31 32 32 33 33 34 35 35 35 35 35 34 34 34 34 34 33 33 33 32 31 30 29 28 28 27 26 26 25 25 25 25 24 24 24 25 25 25 25 24 22 20 19 18 17 17 16 16 17 17 17 16 15 15 14 13 13 12 12 12 11 11 10 9
26 27 29 29 30 31 31 32 32 33 33 34 34 35 35 35 35 35 35 34 34 34 33 32 31 30 29 28 28 27 27 26 26 25 25 24 24 24 24 24 26 26 26 25 24 22 20 19 18 17 17 16 17 17 17 17 16 15 14 14 13 13 12 12 12 11 11 10 9
26 27 28 29 29 30 30 31 31 32 32 33 34 35 35 35 35 35 35 34 34 33 33 31 30 29 29 28 28 27 27 26 25 25 24 24 24 23 23 24 26 27 26 25 24 22 21 20 19 17 17 16 17 17 17 17 16 15 14 14 13 13 13 13 12 12 11 10 9
26 27 28 28 28 28 29 29 30 31 32 33 34 35 35 35 35 35 34 34 34 33 32 31 30 29 29 28 28 27 27 26 25 25 24 23 23 23 23 24 26 27 26 25 24 23 21 20 19 18 17 17 17 17 17 17 16 15 14 14 13 13 13 13 12 12 11 10 10
26 27 27 27 27 27 27 28 29 31 32 33 34 35 35 35 34 34 34 34 34 33 32 31 31 30 29 28 28 28 27 27 26 25 24 23 23 23 23 24 26 26 26 25 24 23 22 21 19 18 17 17 17 18 18 17 16 15 14 14 13 13 13 13 12 12 11 10 10
Wind_Direction
229 229 229 229 229 228 229 229 228 227 227 229 231 232 232 230 227 226 226 226 228 230 232 233 235 235 235 235 234 232 230 229 229 230 232 234 235 236 237 237 237 236 237 239 241 244 247 251 255 258 260 262 262 263 264 265 266 268 270 274 279 283 286 288 289 288 289 290 293
229 229 229 229 228 228 228 228 227 226 226 228 230 232 233 232 229 227 227 227 228 230 231 233 234 235 235 235 235 233 231 230 231 231 233 233 234 234 233 234 234 235 238 241 244 246 250 254 257 259 261 262 262 262 262 263 265 266 269 273 278 281 283 284 284 285 287 290 293
228 228 228 228 228 227 227 227 227 225 224 225 228 230 231 232 230 229 228 228 229 230 231 232 233 234 235 236 235 234 232 231 231 232 232 232 231 230 229 230 232 236 240 244 247 250 253 256 258 259 261 262 263 263 263 263 264 265 268 272 275 278 280 281 281 282 285 290 293
226 226 227 228 228 228 228 228 227 226 224 223 225 227 229 230 229 228 227 228 229 229 230 231 232 234 235 235 235 233 232 231 231 231 231 230 229 228 228 230 234 238 243 246 248 251 253 255 257 259 261 263 264 265 264 263 263 264 266 269 273 276 277 278 278 281 285 289 291
225 226 227 228 230 230 230 230 229 227 225 223 223 224 226 227 226 226 226 227 228 229 230 231 232 233 234 235 234 232 230 229 229 229 229 229 228 229 230 232 236 241 245 247 249 251 253 254 256 258 260 263 265 264 263 261 261 261 264 267 271 273 274 275 277 281 285 288 289
224 225 227 228 230 230 230 230 230 228 227 224 222 222 223 224 224 224 224 226 227 229 230 231 231 232 233 233 232 230 228 227 226 226 227 228 229 230 232 235 238 242 245 248 249 251 252 253 255 257 260 263 264 262 259 257 257 258 262 266 269 271 271 273 276 281 284 286 287
224 225 226 227 228 228 229 229 229 229 227 225 223 222 223 223 223 223 224 226 227 228 229 229 229 229 229 230 230 227 225 222 222 224 226 228 230 232 234 236 239 242 245 247 249 250 251 252 253 256 259 262 262 257 253 251 253 257 261 265 267 267 268 271 276 280 283 285 284
224 225 226 226 226 227 228 228 228 227 226 225 224 223 223 223 223 224 225 226 227 227 227 227 226 226 227 228 227 225 221 219 220 223 227 230 232 234 236 238 240 242 244 246 248 250 251 252 252 255 258 260 258 252 248 248 252 257 261 262 263 263 266 270 275 279 282 282 280
223 224 225 225 225 226 227 227 227 227 226 226 225 224 223 223 224 225 226 226 226 226 226 225 224 225 226 227 226 223 221 219 222 225 229 232 235 236 237 239 240 241 243 245 246 248 249 250 252 254 256 257 254 251 249 251 255 257 258 258 258 260 265 270 275 278 280 279 276
222 223 223 223 223 224 225 225 226 227 227 227 226 225 224 224 225 226 227 227 227 225 224 223 222 223 224 225 225 224 223 224 227 230 234 237 239 239 239 239 239 240 241 242 244 245 247 249 251 254 255 254 252 250 251 253 255 254 253 253 255 260 265 271 275 277 277 275 272
222 222 221 221 221 222 222 223 224 225 226 226 226 225 224 225 226 227 228 228 226 224 222 221 221 222 223 225 226 226 227 229 232 236 239 241 242 241 240 239 238 237 237 238 239 241 244 247 251 254 254 253 250 249 250 251 250 250 250 252 256 261 266 272 275 276 274 271 269
221 221 221 220 220 220 221 222 223 223 224 225 225 225 225 225 226 227 228 227 225 223 221 220 221 222 224 226 227 228 230 232 235 239 241 242 241 240 237 235 234 233 233 233 235 237 241 245 249 252 253 251 248 247 246 246 246 247 249 254 259 263 268 272 274 273 270 266 266
219 220 220 220 219 219 220 221 222 222 223 223 224 224 224 225 227 227 227 225 223 221 220 220 221 223 225 226 228 229 230 233 237 239 240 240 238 236 233 231 229 228 228 229 231 234 238 243 247 250 250 247 244 242 242 243 244 247 251 256 261 265 269 272 272 270 266 263 264
218 219 219 219 218 218 219 220 221 221 221 222 222 222 223 224 226 226 226 224 222 220 219 219 220 223 225 227 228 229 231 234 237 238 238 237 235 232 230 228 226 225 225 226 229 232 236 240 244 245 244 241 240 239 240 242 245 249 253 258 263 267 270 271 268 265 261 260 263
217 218 218 218 217 217 218 219 220 220 220 220 220 221 222 223 225 225 224 223 221 219 219 219 220 222 224 226 228 229 232 234 236 236 236 234 232 230 227 225 224 223 224 225 227 230 233 237 239 239 237 236 237 238 240 243 247 251 256 261 265 268 269 267 263 259 257 259 264
216 217 217 217 217 217 218 219 219 219 219 219 219 219 220 222 223 223 222 221 219 218 218 219 221 222 223 224 226 228 230 233 234 234 234 233 230 228 225 223 223 223 223 224 226 228 230 231 232 231 232 234 236 239 242 245 249 253 258 263 266 268 267 262 257 254 255 260 265
215 216 217 216 216 217 218 219 219 218 218 217 217 217 219 220 221 221 221 220 218 217 217 219 221 222 223 223 224 226 228 230 231 231 231 231 229 226 224 223 223 223 224 224 225 225 225 225 225 227 230 234 238 241 244 247 251 256 261 264 266 265 261 255 251 251 255 261 265
215 216 216 216 217 218 218 219 218 218 217 216 215 216 217 219 219 220 220 219 218 217 217 219 221 223 223 223 224 226 227 228 228 228 228 228 226 224 223 222 222 223 223 224 224 223 222 222 224 227 232 236 240 243 247 250 254 258 262 264 263 259 254 249 248 251 256 262 265
215 215 216 216 217 218 219 219 218 218 217 216 215 215 216 217 218 218 218 218 218 218 218 219 221 223 224 225 226 227 228 229 228 227 226 224 223 221 221 221 221 222 223 223 222 221 221 223 226 230 235 240 243 246 249 252 256 259 261 261 257 252 247 245 246 251 257 261 264
214 215 216 217 217 218 219 219 218 217 216 215 214 214 215 216 217 218 218 218 218 218 219 220 222 222 223 224 226 228 229 229 228 225 223 221 219 218 218 219 220 221 222 222 221 221 222 225 229 234 238 242 245 248 251 254 256 258 258 255 250 246 242 243 247 252 257 260 263
214 215 216 217 218 218 219 218 217 216 215 215 213 213 213 215 216 217 218 218 218 218 219 221 222 223 223 224 225 228 229 229 227 225 222 219 218 217 218 219 220 221 221 221 222 222 225 227 231 234 238 242 246 249 252 253 255 255 252 248 243 240 239 242 248 253 256 259 262
214 215 216 217 218 218 218 217 215 213 212 212 212 212 213 214 215 217 218 218 218 219 219 221 222 223 223 224 226 228 229 229 227 224 222 219 218 218 218 219 221 221 222 222 222 223 225 227 230 233 236 240 243 247 250 251 251 250 245 241 238 237 239 243 248 252 256 259 261
214 215 216 217 218 218 217 215 211 209 209 209 210 211 212 214 216 217 218 218 219 220 220 221 221 222 223 225 227 229 230 229 226 224 221 220 219 219 220 221 221 222 222 222 222 223 224 225 227 229 233 237 241 245 247 248 247 243 239 236 234 235 239 244 248 252 255 258 261
213 214 215 217 217 216 215 213 211 210 210 209 209 210 213 215 216 217 217 218 219 220 221 221 221 221 222 224 227 229 230 229 227 224 221 220 220 220 221 222 222 222 222 222 221 221 221 222 223 225 229 235 239 243 245 245 242 238 234 232 232 235 240 245 249 252 255 258 260
212 213 214 215 215 214 213 213 212 211 210 210 210 212 214 216 217 217 218 218 219 220 221 221 220 219 220 222 225 228 229 229 228 225 223 222 222 222 223 223 222 221 220 219 218 217 217 217 219 223 228 234 239 243 244 242 239 235 232 231 233 237 242 246 250 253 256 257 259
212 213 214 215 214 214 214 214 213 211 210 210 211 214 215 217 218 218 219 219 219 220 220 220 219 219 219 221 223 226 227 228 228 227 226 225 225 224 224 223 221 220 217 215 213 211 211 212 216 222 228 235 240 243 243 241 236 233 231 231 234 239 243 248 251 254 256 257 257
212 213 214 215 214 214 214 214 213 211 210 211 213 215 217 218 219 219 220 220 220 220 220 219 219 219 219 221 223 224 225 226 227 227 228 228 228 227 226 224 221 218 215 212 209 207 208 211 216 222 229 235 240 242 242 239 235 232 231 232 236 240 245 249 252 255 257 256 256
212 214 215 215 214 214 214 213 212 211 211 212 214 215 217 219 219 220 220 220 220 219 219 218 218 218 219 221 222 224 224 225 225 226 227 228 229 229 227 224 220 216 212 209 206 206 209 213 219 225 231 237 241 242 240 237 233 231 231 233 237 242 247 250 253 256 256 255 254
213 214 215 216 215 214 214 212 211 211 212 213 215 216 217 219 220 221 221 220 220 219 218 217 217 217 218 219 221 223 223 224 224 225 225 225 226 227 226 224 219 214 209 207 206 207 211 216 222 228 234 239 242 241 239 235 231 230 231 234 239 244 247 251 253 255 255 253 252
213 215 216 216 216 215 213 212 211 211 212 214 215 216 217 219 220 220 221 220 220 220 219 218 217 217 218 219 221 221 221 222 222 223 223 223 223 224 223 221 216 211 208 206 208 211 215 220 225 230 236 240 242 242 238 234 230 229 230 234 239 244 248 251 253 254 253 252 251
214 216 217 217 217 215 213 212 211 211 212 214 215 216 218 219 220 220 220 221 221 222 221 220 219 219 219 220 221 221 220 220 220 220 221 221 222 222 221 218 214 210 208 208 210 214 218 223 227 232 236 240 242 241 238 234 230 229 231 235 239 243 247 250 252 252 252 252 252
215 216 218 218 217 215 213 212 211 211 212 214 215 217 218 220 220 221 221 221 222 222 222 221 220 220 220 221 221 220 219 219 218 218 219 220 220 220 219 216 213 210 209 210 213 217 221 224 228 232 236 239 241 240 236 233 230 229 231 234 238 242 245 248 249 250 251 252 254
216 216 217 217 216 215 213 212 211 212 213 215 216 218 219 220 221 221 221 222 223 223 223 222 221 221 221 221 220 219 218 217 217 218 218 219 219 218 217 215 213 210 210 212 215 218 222 224 227 231 235 239 240 239 235 232 229 229 230 234 237 241 244 246 247 248 249 251 254
216 216 216 215 214 213 213 212 213 213 215 216 218 219 221 221 221 221 221 222 223 224 224 223 223 223 223 222 221 219 217 216 216 217 217 218 217 217 216 215 213 211 211 213 217 220 222 224 227 231 236 239 239 237 234 231 229 229 230 234 237 240 243 245 246 246 248 250 253
217 216 215 214 213 213 213 213 214 215 216 217 219 221 222 223 222 222 222 223 223 223 223 223 223 223 223 223 222 220 218 216 216 217 217 218 217 216 215 214 212 211 211 214 218 221 222 224 227 232 237 239 239 237 233 230 228 229 231 234 237 240 243 244 245 246 247 249 252
217 217 216 215 214 214 214 215 216 217 218 219 220 222 223 223 223 223 223 224 223 223 222 222 222 221 221 221 220 219 217 217 217 217 218 218 217 216 214 213 211 211 212 215 219 221 222 225 229 234 238 240 240 237 233 229 228 229 231 234 237 241 243 244 245 245 246 248 251
219 219 218 218 217 216 216 217 219 219 220 221 222 223 223 223 223 223 224 224 224 223 223 222 221 221 220 220 218 217 216 217 217 218 219 219 218 216 214 211 210 211 213 216 219 221 224 227 231 236 240 242 240 237 232 229 228 228 231 234 238 241 243 244 244 244 245 246 249
221 221 222 221 221 220 219 220 221 222 222 223 224 224 224 223 223 223 224 225 225 224 224 223 222 221 220 219 218 216 215 215 217 218 219 220 218 216 213 210 209 211 213 217 219 222 225 229 234 238 241 242 241 237 232 229 228 229 231 234 238 241 243 243 243 243 244 245 248
224 224 225 225 225 224 223 222 223 224 224 225 224 224 224 224 224 224 226 227 227 226 226 225 223 222 220 219 217 215 214 214 215 217 218 219 218 216 213 210 210 212 214 218 221 224 228 232 236 240 242 243 241 236 231 229 228 229 232 234 238 240 242 243 242 242 243 245 247
226 227 228 229 229 228 226 225 225 225 226 225 225 224 224 224 225 226 228 228 228 227 227 226 224 222 220 218 216 214 214 214 214 215 216 217 216 215 212 211 211 213 216 219 222 226 230 234 238 241 243 242 239 234 230 228 228 230 232 234 237 240 242 243 243 242 242 244 246
227 228 229 230 231 232 231 229 228 227 226 225 225 225 225 226 227 228 229 229 228 227 226 225 223 222 219 217 215 214 213 213 212 212 213 214 214 213 211 211 212 215 217 221 224 227 231 235 239 243 244 241 237 232 229 227 228 229 232 234 238 240 241 243 243 242 242 242 245
Height
1488 1488 1489 1490 1491 1491 1492 1493 1494 1494 1495 1495 1495 1496 1497 1498 1498 1499 1499 1500 1500 1501 1502 1502 1503 1505 1506 1507 1507 1509 1510 1511 1512 1513 1514 1514 1515 1516 1517 1517 1518 1518 1518 1517 1518 1519 1520 1521 1522 1523 1523 1524 1524 1524 1524 1524 1524 1524 1524 1524 1524 1524 1524 1524 1524 1524 1523 1523 1522
1486 1487 1487 1488 1489 1490 1491 1491 1492 1493 1493 1494 1494 1495 1496 1497 1497 1498 1498 1499 1499 1500 1501 1502 1502 1504 1505 1505 1507 1508 1509 1510 1511 1512 1513 1514 1514 1515 1516 1517 1517 1516 1516 1516 1517 1518 1519 1520 1521 1522 1522 1523 1523 1523 1523 1523 1523 1523 1523 1523 1523 1523 1523 1523 1523 1523 1522 1522 1522
1485 1485 1486 1487 1487 1488 1489 1489 1490 1491 1492 1492 1493 1494 1495 1495 1496 1497 1497 1497 1498 1499 1500 1501 1502 1502 1503 1504 1505 1507 1508 1509 1510 1511 1512 1513 1513 1514 1515 1515 1514 1514 1514 1515 1517 1517 1519 1520 1520 1521 1521 1522 1522 1522 1522 1522 1522 1522 1522 1522 1522 1522 1522 1522 1522 1522 1522 1521 1521
1483 1484 1484 1485 1485 1486 1487 1487 1488 1489 1490 1491 1492 1493 1493 1494 1495 1495 1496 1496 1497 1497 1498 1499 1500 1502 1502 1503 1504 1506 1507 1508 1509 1510 1511 1512 1512 1512 1513 1512 1512 1513 1513 1515 1516 1517 1518 1519 1519 1520 1520 1520 1521 1521 1520 1520 1521 1521 1521 1521 1521 1521 1521 1521 1521 1521 1521 1520 1520
1482 1482 1482 1483 1483 1484 1485 1486 1487 1488 1489 1490 1491 1492 1492 1493 1494 1494 1494 1495 1495 1496 1497 1498 1500 1500 1501 1502 1503 1504 1506 1507 1508 1509 1509 1510 1510 1510 1511 1511 1511 1512 1513 1514 1515 1516 1517 1518 1518 1518 1519 1519 1519 1519 1519 1519 1519 1520 1520 1520 1520 1520 1520 1520 1520 1520 1520 1520 1519
1480 1481 1481 1482 1482 1483 1484 1485 1485 1486 1487 1488 1489 1490 1491 1491 1492 1492 1492 1493 1494 1495 1496 1497 1499 1499 1500 1501 1502 1503 1505 1506 1507 1507 1507 1508 1508 1508 1509 1510 1510 1511 1512 1513 1514 1515 1516 1517 1517 1517 1517 1518 1518 1518 1518 1518 1518 1518 1519 1519 1519 1519 1519 1519 1519 1519 1519 1519 1518
1478 1479 1480 1481 1481 1482 1483 1483 1484 1485 1486 1487 1488 1488 1489 1489 1490 1491 1491 1492 1493 1494 1495 1497 1497 1498 1498 1499 1500 1502 1503 1504 1505 1505 1505 1506 1506 1507 1508 1509 1510 1511 1512 1512 1513 1514 1515 1515 1516 1516 1517 1517 1517 1517 1517 1517 1517 1517 1518 1518 1518 1518 1518 1518 1518 1518 1518 1518 1518
1477 1478 1479 1479 1480 1481 1481 1482 1483 1483 1484 1485 1486 1487 1487 1488 1488 1489 1490 1491 1492 1493 1494 1495 1496 1497 1497 1497 1499 1500 1502 1502 1503 1503 1503 1504 1505 1506 1507 1508 1509 1510 1511 1511 1512 1513 1513 1514 1514 1515 1516 1516 1516 1516 1516 1516 1516 1517 1517 1517 1517 1517 1517 1517 1517 1517 1517 1517 1517
1476 1477 1478 1478 1479 1480 1480 1481 1481 1482 1483 1483 1484 1485 1486 1487 1487 1488 1488 1490 1491 1492 1493 1494 1495 1495 1496 1496 1497 1498 1499 1500 1500 1501 1502 1503 1504 1505 1506 1507 1508 1508 1509 1510 1511 1512 1512 1512 1513 1514 1515 1515 1515 1515 1515 1515 1516 1516 1516 1516 1516 1516 1516 1516 1516 1517 1517 1516 1516
1475 1476 1477 1477 1478 1478 1479 1480 1480 1481 1482 1482 1483 1484 1485 1485 1486 1486 1487 1488 1490 1491 1492 1492 1493 1493 1494 1495 1495 1496 1497 1498 1499 1500 1501 1502 1503 1504 1505 1506 1507 1507 1508 1509 1509 1510 1511 1512 1512 1513 1513 1514 1514 1514 1514 1515 1515 1515 1515 1515 1515 1515 1515 1515 1516 1516 1516 1515 1515
1473 1474 1475 1476 1477 1477 1478 1479 1479 1480 1480 1481 1482 1483 1483 1484 1484 1485 1486 1487 1489 1490 1491 1491 1492 1492 1492 1493 1493 1494 1495 1496 1497 1499 1500 1501 1502 1503 1503 1504 1505 1506 1506 1507 1507 1508 1509 1510 1511 1512 1512 1513 1513 1513 1513 1514 1514 1514 1514 1514 1514 1514 1514 1514 1515 1515 1515 1515 1514
1472 1473 1474 1475 1476 1477 1477 1477 1478 1478 1479 1480 1481 1482 1482 1482 1483 1484 1485 1487 1487 1488 1489 1490 1490 1490 1491 1491 1492 1492 1494 1495 1497 1498 1499 1500 1501 1502 1502 1503 1504 1504 1505 1505 1506 1506 1507 1508 1509 1510 1511 1512 1512 1512 1512 1513 1513 1513 1513 1513 1513 1513 1513 1514 1514 1514 1514 1514 1513
1472 1472 1473 1474 1475 1475 1476 1476 1477 1477 1478 1479 1480 1480 1481 1481 1482 1483 1484 1485 1486 1487 1487 1488 1488 1489 1489 1489 1490 1492 1493 1494 1496 1497 1498 1499 1499 1500 1501 1502 1502 1503 1503 1503 1504 1505 1506 1507 1508 1509 1510 1510 1511 1511 1512 1512 1512 1512 1512 1512 1512 1512 1513 1513 1513 1513 1513 1513 1512
1470 1471 1472 1472 1473 1474 1474 1475 1475 1476 1477 1477 1478 1479 1479 1480 1481 1482 1483 1484 1485 1485 1486 1486 1487 1487 1487 1488 1489 1491 1492 1494 1495 1496 1497 1497 1498 1499 1500 1501 1501 1502 1502 1502 1503 1503 1504 1506 1507 1508 1508 1509 1510 1510 1511 1511 1511 1511 1511 1512 1512 1512 1512 1512 1512 1512 1512 1512 1512
1469 1469 1470 1471 1472 1472 1473 1473 1474 1474 1475 1476 1477 1478 1478 1479 1480 1481 1482 1483 1484 1484 1485 1485 1485 1485 1486 1487 1488 1490 1492 1493 1494 1495 1495 1496 1497 1498 1499 1499 1500 1501 1501 1501 1502 1502 1503 1505 1506 1507 1507 1508 1509 1509 1510 1510 1510 1510 1511 1511 1511 1511 1511 1511 1511 1511 1511 1511 1511
1467 1468 1469 1470 1470 1471 1471 1472 1472 1473 1474 1475 1476 1477 1477 1477 1478 1480 1481 1481 1482 1483 1483 1483 1483 1484 1485 1486 1488 1490 1491 1492 1492 1493 1494 1495 1496 1497 1498 1498 1499 1500 1500 1500 1501 1502 1502 1504 1505 1506 1507 1507 1508 1508 1509 1509 1509 1510 1510 1510 1510 1510 1510 1510 1510 1510 1510 1510 1510
1465 1466 1467 1468 1468 1469 1469 1470 1471 1472 1472 1473 1475 1475 1476 1476 1477 1478 1479 1480 1480 1481 1481 1482 1482 1482 1484 1486 1487 1489 1490 1491 1491 1492 1492 1493 1495 1496 1497 1498 1498 1499 1499 1499 1500 1501 1502 1503 1504 1505 1506 1506 1507 1508 1508 1508 1509 1509 1509 1509 1509 1509 1509 1510 1510 1510 1510 1509 1509
1463 1464 1465 1466 1467 1467 1467 1468 1469 1470 1471 1472 1473 1474 1474 1475 1476 1477 1477 1478 1478 1479 1479 1480 1481 1482 1483 1485 1486 1487 1488 1489 1490 1490 1491 1492 1494 1495 1496 1497 1497 1498 1498 1499 1499 1500 1501 1502 1503 1504 1504 1505 1506 1507 1507 1508 1508 1508 1508 1508 1508 1508 1508 1509 1509 1509 1509 1509 1509
1462 1463 1464 1464 1465 1465 1466 1467 1468 1469 1470 1471 1472 1473 1473 1474 1475 1475 1476 1476 1477 1477 1478 1479 1480 1481 1482 1484 1486 1487 1487 1488 1489 1489 1490 1492 1493 1494 1495 1496 1496 1497 1497 1498 1499 1500 1501 1501 1502 1503 1503 1504 1505 1506 1507 1507 1507 1507 1507 1507 1507 1507 1508 1508 1508 1508 1508 1508 1508
1461 1461 1462 1463 1463 1464 1465 1466 1467 1468 1469 1470 1471 1472 1472 1473 1473 1473 1474 1474 1475 1476 1477 1477 1478 1480 1482 1483 1485 1486 1487 1487 1488 1489 1490 1491 1492 1492 1493 1494 1495 1495 1496 1497 1498 1499 1500 1500 1501 1502 1503 1503 1504 1505 1506 1506 1507 1507 1507 1507 1507 1507 1507 1507 1507 1507 1507 1507 1507
1460 1460 1461 1462 1462 1463 1464 1465 1466 1467 1468 1469 1470 1471 1471 1472 1472 1472 1472 1473 1473 1475 1476 1477 1478 1479 1481 1482 1484 1485 1486 1486 1487 1488 1489 1490 1490 1491 1492 1493 1493 1494 1495 1496 1497 1498 1499 1500 1500 1501 1502 1503 1504 1504 1505 1505 1506 1506 1506 1506 1506 1506 1506 1507 1507 1507 1507 1507 1507
1459 1459 1460 1461 1461 1462 1463 1464 1465 1466 1467 1468 1469 1470 1470 1470 1470 1470 1471 1472 1472 1473 1475 1476 1477 1479 1480 1482 1483 1484 1485 1486 1487 1487 1488 1489 1489 1490 1491 1491 1492 1493 1494 1495 1496 1497 1497 1499 1500 1501 1501 1502 1503 1503 1504 1504 1505 1505 1505 1505 1505 1505 1506 1506 1506 1506 1506 1506 1506
1458 1458 1459 1460 1460 1461 1462 1463 1464 1465 1466 1467 1468 1468 1468 1468 1468 1469 1470 1470 1471 1472 1474 1475 1477 1478 1480 1481 1482 1483 1484 1485 1486 1487 1487 1488 1488 1489 1489 1490 1491 1492 1492 1493 1494 1496 1497 1497 1499 1500 1501 1501 1502 1503 1503 1503 1504 1504 1504 1504 1504 1505 1505 1505 1505 1505 1505 1505 1505
1457 1457 1458 1458 1459 1460 1461 1462 1463 1464 1465 1466 1466 1466 1466 1466 1467 1467 1468 1469 1470 1471 1473 1474 1476 1477 1478 1480 1481 1482 1483 1484 1485 1485 1486 1487 1487 1488 1488 1489 1490 1491 1492 1492 1493 1495 1496 1497 1498 1499 1500 1500 1501 1502 1502 1502 1503 1503 1503 1503 1504 1504 1504 1505 1505 1505 1505 1505 1505
1456 1456 1456 1457 1457 1458 1459 1461 1462 1463 1464 1464 1464 1464 1464 1464 1465 1465 1466 1467 1468 1470 1471 1473 1474 1476 1477 1478 1480 1481 1482 1483 1483 1484 1485 1485 1486 1487 1487 1488 1489 1490 1491 1492 1493 1494 1495 1496 1497 1498 1498 1499 1500 1501 1501 1502 1502 1502 1502 1503 1503 1503 1504 1504 1504 1504 1504 1504 1504
1455 1455 1455 1455 1456 1457 1458 1459 1460 1461 1462 1462 1462 1462 1462 1462 1463 1463 1464 1465 1467 1468 1470 1471 1473 1474 1475 1477 1478 1479 1480 1481 1482 1483 1483 1484 1485 1486 1487 1487 1488 1489 1490 1491 1492 1493 1494 1495 1496 1497 1497 1498 1499 1500 1500 1501 1501 1502 1502 1502 1502 1502 1503 1503 1503 1503 1503 1503 1503
1453 1453 1453 1454 1454 1455 1456 1457 1459 1460 1461 1460 1460 1460 1460 1461 1461 1462 1462 1464 1465 1467 1468 1470 1471 1472 1474 1475 1477 1478 1479 1480 1481 1481 1482 1483 1484 1485 1486 1487 1487 1488 1490 1491 1492 1493 1493 1494 1495 1496 1497 1497 1498 1499 1499 1500 1500 1501 1501 1501 1502 1502 1502 1502 1502 1502 1502 1503 1503
1451 1452 1452 1452 1453 1454 1455 1456 1458 1458 1459 1458 1458 1458 1459 1459 1460 1460 1461 1462 1463 1465 1466 1468 1469 1471 1472 1474 1475 1476 1477 1478 1479 1480 1481 1482 1483 1484 1485 1486 1487 1488 1489 1490 1491 1492 1492 1493 1494 1495 1496 1497 1497 1498 1498 1499 1499 1500 1500 1501 1501 1501 1501 1502 1502 1502 1502 1502 1502
1450 1450 1451 1451 1452 1453 1454 1455 1456 1457 1457 1457 1457 1457 1458 1458 1459 1459 1460 1461 1462 1463 1464 1466 1467 1469 1470 1472 1473 1474 1475 1476 1477 1478 1480 1481 1482 1483 1484 1485 1487 1488 1489 1490 1490 1491 1492 1492 1493 1494 1495 1496 1497 1497 1497 1498 1499 1499 1499 1500 1500 1500 1500 1501 1501 1501 1502 1502 1502
1448 1449 1449 1449 1450 1451 1452 1454 1455 1455 1455 1455 1456 1456 1457 1457 1458 1458 1459 1460 1461 1462 1463 1464 1466 1467 1468 1470 1471 1472 1473 1475 1476 1477 1478 1479 1481 1482 1483 1485 1486 1487 1488 1489 1490 1490 1491 1492 1492 1493 1494 1495 1496 1496 1497 1497 1498 1498 1499 1499 1499 1499 1500 1500 1500 1501 1501 1501 1501
1447 1447 1448 1448 1449 1450 1451 1452 1453 1453 1453 1454 1454 1455 1455 1456 1457 1457 1458 1459 1460 1461 1462 1463 1465 1466 1467 1468 1469 1471 1472 1473 1475 1476 1477 1478 1479 1481 1482 1484 1485 1486 1487 1488 1489 1489 1490 1491 1492 1492 1493 1494 1495 1495 1496 1497 1497 1497 1498 1498 1498 1499 1499 1499 1500 1500 1500 1500 1500
1447 1447 1447 1448 1448 1449 1450 1451 1451 1452 1452 1452 1453 1453 1454 1455 1456 1456 1457 1458 1460 1461 1462 1463 1464 1465 1466 1467 1468 1470 1471 1472 1473 1474 1475 1477 1478 1480 1482 1483 1484 1486 1487 1487 1488 1488 1489 1490 1491 1492 1492 1493 1494 1494 1495 1496 1496 1497 1497 1497 1498 1498 1498 1499 1499 1499 1499 1499 1499
1446 1446 1447 1447 1448 1448 1449 1449 1449 1450 1451 1451 1452 1452 1453 1454 1455 1456 1457 1457 1458 1460 1461 1462 1463 1464 1465 1466 1468 1469 1470 1471 1472 1473 1474 1475 1477 1479 1481 1482 1483 1485 1486 1486 1487 1487 1488 1489 1490 1491 1492 1492 1493 1493 1494 1495 1495 1496 1496 1497 1497 1497 1497 1498 1498 1498 1499 1499 1499
1445 1446 1446 1447 1447 1447 1447 1448 1448 1449 1450 1451 1451 1452 1452 1453 1454 1455 1455 1456 1457 1458 1459 1461 1462 1463 1464 1466 1467 1468 1470 1471 1471 1472 1473 1475 1476 1478 1480 1481 1482 1484 1485 1485 1486 1487 1487 1488 1489 1490 1491 1492 1492 1492 1493 1494 1494 1495 1495 1496 1496 1497 1497 1497 1497 1498 1498 1498 1498
1444 1445 1445 1445 1446 1446 1446 1447 1447 1448 1449 1450 1451 1452 1452 1452 1453 1454 1454 1455 1456 1457 1458 1460 1461 1462 1464 1466 1467 1468 1469 1470 1471 1471 1472 1474 1476 1477 1479 1480 1482 1483 1484 1484 1485 1486 1487 1487 1488 1489 1490 1490 1491 1492 1492 1493 1493 1494 1495 1495 1495 1496 1496 1497 1497 1497 1497 1497 1497
1443 1444 1444 1444 1444 1445 1445 1446 1447 1447 1449 1449 1450 1451 1451 1452 1452 1453 1454 1454 1455 1456 1457 1458 1459 1461 1463 1464 1466 1467 1468 1469 1470 1471 1472 1474 1475 1477 1478 1479 1481 1482 1483 1484 1484 1485 1486 1487 1487 1488 1489 1489 1490 1491 1491 1492 1493 1493 1494 1494 1494 1495 1495 1496 1496 1496 1497 1497 1497
1442 1442 1442 1442 1443 1444 1444 1445 1446 1447 1448 1449 1449 1450 1450 1451 1452 1452 1453 1454 1455 1455 1456 1457 1458 1460 1462 1463 1465 1466 1467 1468 1469 1471 1472 1473 1474 1476 1477 1479 1480 1481 1482 1483 1483 1484 1485 1486 1487 1487 1488 1488 1489 1490 1491 1491 1492 1492 1493 1493 1494 1494 1495 1495 1495 1496 1496 1496 1496
1441 1441 1441 1442 1442 1443 1444 1444 1445 1446 1447 1447 1448 1449 1449 1450 1451 1452 1452 1453 1454 1454 1455 1457 1458 1459 1461 1462 1464 1465 1467 1468 1469 1470 1471 1472 1473 1475 1476 1478 1479 1480 1481 1482 1482 1483 1484 1485 1486 1487 1487 1487 1488 1489 1490 1490 1491 1492 1492 1492 1493 1493 1494 1494 1495 1495 1495 1495 1495
1440 1440 1440 1441 1442 1442 1443 1444 1444 1445 1446 1447 1447 1448 1448 1449 1450 1451 1452 1452 1453 1454 1455 1456 1457 1459 1460 1462 1463 1464 1466 1467 1468 1469 1470 1471 1472 1474 1475 1477 1478 1479 1480 1481 1482 1483 1483 1484 1485 1486 1486 1487 1487 1488 1489 1489 1490 1491 1491 1492 1492 1492 1493 1493 1494 1494 1494 1494 1494
1439 1439 1440 1440 1441 1442 1442 1443 1444 1444 1445 1445 1446 1447 1447 1448 1449 1450 1451 1452 1453 1454 1455 1456 1457 1458 1460 1461 1462 1463 1465 1466 1467 1468 1469 1471 1472 1473 1474 1476 1477 1478 1479 1480 1481 1482 1483 1483 1484 1485 1485 1486 1486 1487 1488 1488 1489 1490 1490 1491 1491 1492 1492 1492 1493 1493 1493 1493 1494
1438 1438 1439 1440 1440 1441 1442 1442 1443 1443 1444 1444 1445 1446 1447 1448 1449 1450 1451 1452 1452 1453 1454 1455 1456 1457 1458 1460 1461 1462 1464 1465 1466 1467 1468 1469 1471 1472 1473 1475 1476 1477 1478 1479 1480 1481 1482 1482 1483 1484 1484 1485 1485 1486 1487 1487 1488 1488 1489 1490 1490 1491 1491 1492 1492 1492 1492 1493 1493